Adak, AK

8:55 PM HST on February 20, 2017 (GMT -1000)
Adak

Weather History for PADK - November, 2013

Change the Weather History Date:

Thursday, November 28, 2013

  Actual Average Record
Temperature  
Mean Temperature 37 °F -  
Max Temperature 39 °F 38 °F 46 °F (1961)
Min Temperature 35 °F 30 °F 19 °F (1953)
Degree Days  
Heating Degree Days 28    
Moisture  
Dew Point 29 °F    
Average Humidity 71    
Maximum Humidity 81    
Minimum Humidity 55    
Precipitation  
Precipitation 0.00 in - - ()
Sea Level Pressure  
Sea Level Pressure 30.17 in    
Wind  
Wind Speed 22 mph (NE)    
Max Wind Speed 29 mph    
Max Gust Speed 37 mph    
Visibility 10 miles    
Events      
Averages and records for this station are not official NWS values.
T = Trace of Precipitation, MM = Missing Value Source: NWS Daily Summary

Daily Weather History Graph

Daily Weather History Graph

Search for Another Location

Airport or City:

Trip Planner

Search our weather history database for the weather conditions in past years. The results will help you decide how hot, cold, wet, or windy it might be!

Date:

Astronomy

Nov. 28, 2013 Rise Set
Actual Time 9:28 AM HST 5:41 PM HST
Civil Twilight 8:48 AM HST 6:20 PM HST
Nautical Twilight 8:06 AM HST 7:02 PM HST
Astronomical Twilight 7:26 AM HST 7:43 PM HST
Moon 4:15 AM HST (11/28) 3:26 PM HST (11/28)
Length of Visible Light 9h 31m
Length of Day
8h 12m
Waning Crescent, 21% of the Moon is Illuminated
Nov 28
Waning Crescent
Dec 2
New
Dec 9
First Quarter
Dec 16
Full
Dec 25
Last Quarter

Hourly Weather History & Observations

Time (HST) Temp. Windchill Dew Point Humidity Pressure Visibility Wind Dir Wind Speed Gust Speed Precip Events Conditions
12:16 AM 39.2 °F 28.5 °F 32.0 °F 75% 30.08 in 10.0 mi NE 24.2 mph 34.5 mph N/A   Overcast
12:36 AM 37.4 °F 25.2 °F 32.0 °F 81% 30.07 in 10.0 mi NE 28.8 mph 35.7 mph N/A   Mostly Cloudy
12:56 AM 37.4 °F 25.9 °F 30.2 °F 75% 30.07 in 10.0 mi NNE 25.3 mph 34.5 mph N/A   Scattered Clouds
1:16 AM 37.4 °F 26.4 °F 32.0 °F 81% 30.08 in 10.0 mi NNE 23.0 mph 32.2 mph N/A   Mostly Cloudy
1:36 AM 37.4 °F 26.6 °F 32.0 °F 81% 30.07 in 10.0 mi NNE 21.9 mph 35.7 mph N/A   Mostly Cloudy
1:56 AM 37.4 °F 26.4 °F 32.0 °F 81% 30.08 in 10.0 mi NNE 23.0 mph 34.5 mph N/A   Mostly Cloudy
2:16 AM 37.4 °F 26.1 °F 30.2 °F 75% 30.08 in 10.0 mi NE 24.2 mph 34.5 mph N/A   Mostly Cloudy
2:36 AM 37.4 °F 26.4 °F 30.2 °F 75% 30.08 in 10.0 mi NNE 23.0 mph 33.4 mph N/A   Scattered Clouds
2:56 AM 37.4 °F 26.1 °F 30.2 °F 75% 30.09 in 10.0 mi NNE 24.2 mph 27.6 mph N/A   Mostly Cloudy
3:16 AM 37.4 °F 26.9 °F 30.2 °F 75% 30.09 in 10.0 mi NNE 20.7 mph 26.5 mph N/A   Mostly Cloudy
3:36 AM 35.6 °F 24.5 °F 30.2 °F 81% 30.09 in 10.0 mi NNE 20.7 mph 24.2 mph N/A   Scattered Clouds
3:56 AM 35.6 °F 24.2 °F 30.2 °F 81% 30.09 in 10.0 mi NNE 21.9 mph 29.9 mph N/A   Mostly Cloudy
4:16 AM 37.4 °F 26.9 °F 30.2 °F 75% 30.10 in 10.0 mi NE 20.7 mph 26.5 mph N/A   Overcast
4:36 AM 35.6 °F 24.5 °F 30.2 °F 81% 30.11 in 10.0 mi NNE 20.7 mph 32.2 mph N/A   Overcast
4:56 AM 37.4 °F 27.8 °F 30.2 °F 75% 30.11 in 10.0 mi NNE 17.3 mph 27.6 mph N/A   Overcast
5:16 AM 35.6 °F 22.7 °F 30.2 °F 81% 30.11 in 10.0 mi NE 28.8 mph 33.4 mph N/A   Overcast
5:36 AM 35.6 °F 25.2 °F 30.2 °F 81% 30.11 in 10.0 mi NE 18.4 mph 33.4 mph N/A   Overcast
5:56 AM 35.6 °F 23.2 °F 30.2 °F 81% 30.11 in 10.0 mi NE 26.5 mph 32.2 mph N/A   Overcast
6:16 AM 35.6 °F 24.5 °F 30.2 °F 81% 30.12 in 10.0 mi NNE 20.7 mph 27.6 mph N/A   Overcast
6:36 AM 35.6 °F 24.5 °F 28.4 °F 75% 30.12 in 10.0 mi NNE 20.7 mph 28.8 mph N/A   Mostly Cloudy
6:56 AM 35.6 °F 23.7 °F 28.4 °F 75% 30.12 in 10.0 mi NE 24.2 mph 33.4 mph N/A   Overcast
7:16 AM 35.6 °F 24.8 °F 28.4 °F 75% 30.12 in 9.0 mi NE 19.6 mph 31.1 mph N/A   Overcast
7:36 AM 35.6 °F 24.2 °F 30.2 °F 81% 30.13 in 10.0 mi NE 21.9 mph 32.2 mph N/A   Overcast
7:56 AM 35.6 °F 24.5 °F 28.4 °F 75% 30.13 in 10.0 mi NE 20.7 mph 34.5 mph N/A   Overcast
8:16 AM 35.6 °F 24.5 °F 28.4 °F 75% 30.14 in 10.0 mi NE 20.7 mph 31.1 mph N/A   Overcast
8:36 AM 35.6 °F 24.8 °F 28.4 °F 75% 30.15 in 10.0 mi NNE 19.6 mph 26.5 mph N/A   Overcast
8:56 AM 37.4 °F 25.9 °F 28.4 °F 70% 30.15 in 10.0 mi NE 25.3 mph 31.1 mph N/A   Overcast
9:16 AM 35.6 °F 24.2 °F 28.4 °F 75% 30.16 in 10.0 mi NE 21.9 mph 29.9 mph N/A   Overcast
9:36 AM 35.6 °F 24.5 °F 28.4 °F 75% 30.15 in 10.0 mi NNE 20.7 mph - N/A   Mostly Cloudy
9:56 AM 35.6 °F 24.0 °F 30.2 °F 81% 30.16 in 8.0 mi NNE 23.0 mph 28.8 mph N/A   Mostly Cloudy
10:16 AM 35.6 °F 23.7 °F 28.4 °F 75% 30.16 in 10.0 mi NNE 24.2 mph 32.2 mph N/A   Overcast
10:36 AM 35.6 °F 24.8 °F 28.4 °F 75% 30.17 in 10.0 mi NNE 19.6 mph 24.2 mph N/A   Overcast
10:56 AM 37.4 °F 25.4 °F 26.6 °F 65% 30.17 in 10.0 mi NE 27.6 mph 36.8 mph N/A   Overcast
11:16 AM 37.4 °F 26.6 °F 28.4 °F 70% 30.18 in 10.0 mi NNE 21.9 mph 33.4 mph N/A   Overcast
11:36 AM 37.4 °F 27.2 °F 28.4 °F 70% 30.18 in 10.0 mi NE 19.6 mph 31.1 mph N/A   Overcast
11:56 AM 37.4 °F 25.4 °F 28.4 °F 70% 30.18 in 10.0 mi NE 27.6 mph 33.4 mph N/A   Overcast
12:16 PM 37.4 °F 27.2 °F 28.4 °F 70% 30.19 in 10.0 mi NE 19.6 mph 31.1 mph N/A   Overcast
12:36 PM 37.4 °F 25.6 °F 26.6 °F 65% 30.18 in 10.0 mi NNE 26.5 mph 33.4 mph N/A   Overcast
12:56 PM 37.4 °F 26.9 °F 28.4 °F 70% 30.18 in 10.0 mi NE 20.7 mph 28.8 mph N/A   Overcast
1:16 PM 37.4 °F 25.6 °F 28.4 °F 70% 30.18 in 10.0 mi NE 26.5 mph 35.7 mph N/A   Overcast
1:36 PM 37.4 °F 26.6 °F 26.6 °F 65% 30.18 in 10.0 mi NNE 21.9 mph 28.8 mph N/A   Overcast
1:56 PM 37.4 °F 26.6 °F 26.6 °F 65% 30.19 in 10.0 mi NE 21.9 mph 33.4 mph N/A   Overcast
2:16 PM 37.4 °F 25.2 °F 28.4 °F 70% 30.19 in 10.0 mi NE 28.8 mph 35.7 mph N/A   Overcast
2:36 PM 37.4 °F 25.4 °F 28.4 °F 70% 30.19 in 10.0 mi NE 27.6 mph 33.4 mph N/A   Overcast
2:56 PM 37.4 °F 27.2 °F 26.6 °F 65% 30.19 in 10.0 mi NE 19.6 mph 31.1 mph N/A   Overcast
3:16 PM 37.4 °F 26.9 °F 28.4 °F 70% 30.20 in 10.0 mi NE 20.7 mph 26.5 mph N/A   Overcast
3:36 PM 37.4 °F 26.4 °F 26.6 °F 65% 30.19 in 10.0 mi NE 23.0 mph 29.9 mph N/A   Overcast
3:56 PM 37.4 °F 27.8 °F 26.6 °F 65% 30.19 in 10.0 mi NNE 17.3 mph 20.7 mph N/A   Overcast
4:16 PM 37.4 °F 26.6 °F 28.4 °F 70% 30.20 in 10.0 mi NE 21.9 mph - N/A   Overcast
4:36 PM 37.4 °F 27.8 °F 28.4 °F 70% 30.21 in 10.0 mi NE 17.3 mph 28.8 mph N/A   Overcast
4:56 PM 37.4 °F 25.9 °F 28.4 °F 70% 30.20 in 10.0 mi NNE 25.3 mph 34.5 mph N/A   Overcast
5:16 PM 37.4 °F 25.9 °F 28.4 °F 70% 30.20 in 10.0 mi NE 25.3 mph 32.2 mph N/A   Overcast
5:56 PM 37.4 °F 26.9 °F 26.6 °F 65% 30.21 in 10.0 mi NE 20.7 mph 31.1 mph N/A   Overcast
6:16 PM 37.4 °F 26.6 °F 28.4 °F 70% 30.22 in 10.0 mi East 21.9 mph 27.6 mph N/A   Overcast
6:36 PM 37.4 °F 26.9 °F 26.6 °F 65% 30.22 in 10.0 mi NNE 20.7 mph - N/A   Overcast
6:56 PM 37.4 °F 27.2 °F 28.4 °F 70% 30.24 in 10.0 mi ENE 19.6 mph 26.5 mph N/A   Overcast
7:16 PM 37.4 °F 27.2 °F 26.6 °F 65% 30.24 in 10.0 mi NE 19.6 mph 25.3 mph N/A   Overcast
7:36 PM 35.6 °F 23.2 °F 26.6 °F 70% 30.23 in 10.0 mi ENE 26.5 mph 32.2 mph N/A   Mostly Cloudy
7:56 PM 37.4 °F 26.9 °F 26.6 °F 65% 30.25 in 10.0 mi NE 20.7 mph 27.6 mph N/A   Mostly Cloudy
8:16 PM 37.4 °F 26.4 °F 26.6 °F 65% 30.24 in 10.0 mi NE 23.0 mph 32.2 mph N/A   Overcast
8:36 PM 37.4 °F 27.5 °F 26.6 °F 65% 30.24 in 10.0 mi NE 18.4 mph - N/A   Overcast
8:56 PM 37.4 °F 28.5 °F 26.6 °F 65% 30.22 in 10.0 mi NNE 15.0 mph - N/A   Mostly Cloudy
9:16 PM 37.4 °F 28.5 °F 26.6 °F 65% 30.25 in 10.0 mi East 15.0 mph - N/A   Mostly Cloudy
9:36 PM 37.4 °F 28.2 °F 26.6 °F 65% 30.24 in 10.0 mi NE 16.1 mph - N/A   Overcast
9:56 PM 37.4 °F 27.8 °F 28.4 °F 70% 30.23 in 10.0 mi East 17.3 mph - N/A   Mostly Cloudy
10:16 PM 37.4 °F 27.8 °F 28.4 °F 70% 30.23 in 10.0 mi East 17.3 mph 25.3 mph N/A   Mostly Cloudy
10:36 PM 37.4 °F - 26.6 °F 65% 30.23 in 10.0 mi Calm Calm - N/A   Overcast
10:56 PM 37.4 °F 28.5 °F 26.6 °F 65% 30.24 in 10.0 mi East 15.0 mph - N/A   Mostly Cloudy
11:16 PM 37.4 °F 28.5 °F 26.6 °F 65% 30.23 in 10.0 mi NE 15.0 mph 19.6 mph N/A   Overcast
11:36 PM 37.4 °F 29.8 °F 26.6 °F 65% 30.25 in 10.0 mi ENE 11.5 mph - N/A   Overcast
11:56 PM 37.4 °F 29.3 °F 28.4 °F 70% 30.25 in 10.0 mi NNE 12.7 mph 16.1 mph N/A   Overcast